• In Russia
  • List of Countries
  • For 7 days
  • Water Temperature
  • Satellite Maps
  • Weather Map
  • Weather Widgets
  • user-avatar
    Login

    Hourly Weather Innsbruck

    Today, 1 May, Monday

    Time Temperature Precipitation Wind Pressure Humidity
    00:00 -4°C° 0 mm 2 mps 589 mmHg 95%
    01:00 -4°C° 0 mm 2 mps 589 mmHg 95%
    02:00 -4°C° 0 mm 2 mps 588 mmHg 95%
    03:00 -5°C° 0 mm 2 mps 588 mmHg 95%
    04:00 -5°C° 0 mm 2 mps 588 mmHg 94%
    05:00 -4°C° 0 mm 2 mps 588 mmHg 92%
    06:00 -3°C° 0 mm 2 mps 589 mmHg 90%
    07:00 -2°C° 0 mm 2 mps 589 mmHg 87%
    08:00 -1°C° 0 mm 2 mps 590 mmHg 84%
    09:00 +2°C° 0 mm 2 mps 591 mmHg 81%
    10:00 +3°C° 0 mm 2 mps 591 mmHg 78%
    11:00 +2°C° 0.9 mm 2 mps 591 mmHg 82%
    12:00 +2°C° 0.9 mm 2 mps 591 mmHg 87%
    13:00 +1°C° 0.9 mm 2 mps 591 mmHg 92%
    14:00 -1°C° 2.2 mm 2 mps 591 mmHg 93%
    15:00 0°C° 2.2 mm 1 mps 591 mmHg 94%
    16:00 -1°C° 2.2 mm 1 mps 591 mmHg 96%
    17:00 -1°C° 1.5 mm 1 mps 591 mmHg 96%
    18:00 -2°C° 1.5 mm 1 mps 591 mmHg 97%
    19:00 -5°C° 1.5 mm 2 mps 591 mmHg 98%
    20:00 -5°C° 1 mm 2 mps 591 mmHg 98%
    21:00 -4°C° 1 mm 1 mps 591 mmHg 97%
    22:00 -4°C° 1 mm 1 mps 591 mmHg 97%
    23:00 -4°C° 0.7 mm 1 mps 591 mmHg 97%

    Tomorrow, 2 May, Tuesday

    Time Temperature Precipitation Wind Pressure Humidity
    00:00 -4°C° 0.7 mm 1 mps 591 mmHg 97%
    01:00 -6°C° 0.7 mm 1 mps 591 mmHg 97%
    02:00 -6°C° 0.4 mm 1 mps 591 mmHg 97%
    03:00 -6°C° 0.4 mm 1 mps 592 mmHg 97%
    04:00 -6°C° 0.4 mm 1 mps 592 mmHg 97%
    05:00 -4°C° 0.1 mm 1 mps 592 mmHg 96%
    06:00 -4°C° 0.1 mm 1 mps 592 mmHg 96%
    07:00 -3°C° 0.1 mm 1 mps 593 mmHg 96%
    08:00 -1°C° 0 mm 1 mps 593 mmHg 96%
    09:00 0°C° 0 mm 1 mps 594 mmHg 95%
    10:00 +1°C° 0 mm 1 mps 594 mmHg 95%
    11:00 +2°C° 0 mm 1 mps 594 mmHg 94%
    12:00 +2°C° 0 mm 1 mps 594 mmHg 93%
    13:00 +3°C° 0 mm 1 mps 595 mmHg 92%
    14:00 +3°C° 0.2 mm 1 mps 594 mmHg 91%
    15:00 +4°C° 0.2 mm 1 mps 594 mmHg 91%
    16:00 +4°C° 0.2 mm 1 mps 594 mmHg 90%
    17:00 +2°C° 0.1 mm 1 mps 594 mmHg 92%
    18:00 +1°C° 0.1 mm 1 mps 593 mmHg 93%
    19:00 0°C° 0.1 mm 1 mps 592 mmHg 95%
    20:00 -1°C° 0 mm 1 mps 592 mmHg 95%
    21:00 -2°C° 0 mm 1 mps 592 mmHg 95%
    22:00 -4°C° 0 mm 2 mps 592 mmHg 95%
    23:00 -4°C° 0.1 mm 2 mps 592 mmHg 95%

    Day after tomorrow, 3 May, Wednesday

    Time Temperature Precipitation Wind Pressure Humidity
    00:00 -4°C° 0.1 mm 2 mps 592 mmHg 95%
    01:00 -4°C° 0.1 mm 2 mps 592 mmHg 95%
    02:00 -4°C° 0.2 mm 2 mps 592 mmHg 95%
    03:00 -2°C° 0.2 mm 1 mps 592 mmHg 95%
    04:00 -2°C° 0.2 mm 1 mps 592 mmHg 95%
    05:00 -1°C° 0.2 mm 1 mps 592 mmHg 95%
    06:00 -1°C° 0.2 mm 1 mps 593 mmHg 95%
    07:00 0°C° 0.2 mm 1 mps 593 mmHg 94%
    08:00 +1°C° 0.3 mm 1 mps 593 mmHg 93%
    09:00 +2°C° 0.3 mm 1 mps 594 mmHg 92%
    10:00 +3°C° 0.3 mm 1 mps 594 mmHg 91%
    11:00 +3°C° 0.6 mm 1 mps 594 mmHg 91%
    12:00 +3°C° 0.6 mm 1 mps 594 mmHg 90%
    13:00 +4°C° 0.6 mm 1 mps 594 mmHg 90%
    14:00 +4°C° 0.9 mm 1 mps 594 mmHg 90%
    15:00 +3°C° 0.9 mm 1 mps 594 mmHg 89%
    16:00 +3°C° 0.9 mm 1 mps 594 mmHg 89%
    17:00 +2°C° 1.2 mm 1 mps 593 mmHg 92%
    18:00 +1°C° 1.2 mm 1 mps 593 mmHg 94%
    19:00 0°C° 1.2 mm 1 mps 592 mmHg 96%
    20:00 0°C° 0.8 mm 1 mps 592 mmHg 97%
    21:00 -1°C° 0.8 mm 1 mps 592 mmHg 97%
    22:00 -1°C° 0.8 mm 1 mps 592 mmHg 98%
    23:00 -2°C° 0.2 mm 1 mps 592 mmHg 98%

    4 May, Thursday

    Time Temperature Precipitation Wind Pressure Humidity
    00:00 -3°C° 0.2 mm 1 mps 591 mmHg 97%
    01:00 -5°C° 0.2 mm 0 mps 591 mmHg 97%
    02:00 -5°C° 0.1 mm 0 mps 590 mmHg 97%
    03:00 -6°C° 0.1 mm 0 mps 590 mmHg 97%
    04:00 -7°C° 0.1 mm 0 mps 589 mmHg 97%
    05:00 -5°C° 0.1 mm 0 mps 590 mmHg 95%
    06:00 -3°C° 0.1 mm 0 mps 591 mmHg 93%
    07:00 -1°C° 0.1 mm 0 mps 592 mmHg 91%
    08:00 +1°C° 0.1 mm 0 mps 593 mmHg 87%
    09:00 +2°C° 0.1 mm 0 mps 593 mmHg 83%
    10:00 +3°C° 0.1 mm 0 mps 593 mmHg 80%
    11:00 +4°C° 0.5 mm 0 mps 593 mmHg 80%
    12:00 +5°C° 0.5 mm 1 mps 593 mmHg 80%
    13:00 +5°C° 0.5 mm 1 mps 593 mmHg 80%
    14:00 +5°C° 1 mm 1 mps 593 mmHg 82%
    15:00 +5°C° 1 mm 1 mps 593 mmHg 84%
    16:00 +4°C° 1 mm 1 mps 592 mmHg 86%
    17:00 +3°C° 1 mm 1 mps 592 mmHg 89%
    18:00 +2°C° 1 mm 1 mps 592 mmHg 93%
    19:00 +1°C° 1 mm 1 mps 592 mmHg 96%
    20:00 +1°C° 0.7 mm 1 mps 592 mmHg 97%
    21:00 0°C° 0.7 mm 1 mps 592 mmHg 97%
    22:00 0°C° 0.7 mm 1 mps 592 mmHg 98%
    23:00 -1°C° 0.4 mm 1 mps 592 mmHg 98%

    5 May, Friday

    Time Temperature Precipitation Wind Pressure Humidity
    00:00 -1°C° 0.4 mm 1 mps 592 mmHg 98%
    01:00 -1°C° 0.4 mm 1 mps 592 mmHg 98%
    02:00 -1°C° 0.3 mm 1 mps 592 mmHg 98%
    03:00 -1°C° 0.3 mm 1 mps 592 mmHg 97%
    04:00 -1°C° 0.3 mm 1 mps 592 mmHg 97%
    05:00 -1°C° 0.2 mm 1 mps 593 mmHg 96%
    06:00 0°C° 0.2 mm 1 mps 593 mmHg 95%
    07:00 +1°C° 0.2 mm 1 mps 594 mmHg 94%
    08:00 +2°C° 0.1 mm 1 mps 594 mmHg 90%
    09:00 +4°C° 0.1 mm 1 mps 595 mmHg 86%
    10:00 +5°C° 0.1 mm 1 mps 595 mmHg 83%
    11:00 +5°C° 0.1 mm 1 mps 595 mmHg 81%
    12:00 +6°C° 0.1 mm 1 mps 595 mmHg 80%
    13:00 +6°C° 0.1 mm 1 mps 595 mmHg 78%
    14:00 +6°C° 0.3 mm 1 mps 595 mmHg 79%
    15:00 +6°C° 0.3 mm 1 mps 595 mmHg 79%
    16:00 +6°C° 0.3 mm 1 mps 595 mmHg 79%
    17:00 +5°C° 0.2 mm 1 mps 594 mmHg 84%
    18:00 +3°C° 0.2 mm 1 mps 594 mmHg 89%
    19:00 +2°C° 0.2 mm 1 mps 593 mmHg 94%
    20:00 0°C° 0.1 mm 1 mps 593 mmHg 95%
    21:00 -2°C° 0.1 mm 1 mps 592 mmHg 96%
    22:00 -3°C° 0.1 mm 1 mps 592 mmHg 97%
    23:00 -4°C° 0 mm 1 mps 592 mmHg 96%

    6 May, Saturday

    Time Temperature Precipitation Wind Pressure Humidity
    00:00 -4°C° 0 mm 1 mps 591 mmHg 95%
    01:00 -4°C° 0 mm 1 mps 591 mmHg 94%
    02:00 -4°C° 0 mm 1 mps 591 mmHg 92%
    03:00 -4°C° 0 mm 1 mps 591 mmHg 89%
    04:00 -4°C° 0 mm 1 mps 591 mmHg 87%
    05:00 -2°C° 0 mm 1 mps 592 mmHg 85%
    06:00 0°C° 0 mm 1 mps 593 mmHg 82%
    07:00 +2°C° 0 mm 1 mps 594 mmHg 79%
    08:00 +4°C° 0 mm 1 mps 595 mmHg 73%
    09:00 +6°C° 0 mm 1 mps 595 mmHg 67%
    10:00 +8°C° 0 mm 1 mps 596 mmHg 61%
    11:00 +9°C° 0 mm 1 mps 596 mmHg 59%
    12:00 +9°C° 0 mm 1 mps 596 mmHg 57%
    13:00 +10°C° 0 mm 1 mps 596 mmHg 55%
    14:00 +10°C° 0.1 mm 1 mps 596 mmHg 59%
    15:00 +9°C° 0.1 mm 1 mps 595 mmHg 62%
    16:00 +9°C° 0.1 mm 1 mps 595 mmHg 65%
    17:00 +8°C° 0.1 mm 1 mps 594 mmHg 73%
    18:00 +6°C° 0.1 mm 1 mps 593 mmHg 82%
    19:00 +5°C° 0.1 mm 1 mps 592 mmHg 90%
    20:00 +4°C° 0 mm 1 mps 592 mmHg 92%
    21:00 +3°C° 0 mm 2 mps 592 mmHg 93%
    22:00 +2°C° 0 mm 2 mps 591 mmHg 95%
    23:00 +2°C° 0.2 mm 2 mps 591 mmHg 95%
    Show more